| time (UTC) | temp C | wind direction | speed KPH | gust KPH | rain 1hr cm | rain 24hr cm | rain mn cm | humidity % | barometer mb |
| 20260906191601 | 26 | 121 | 6.4 | 25.7 | 0.00 | 0.00 | 0.00 | 77 | 1017.9 |
| 20260906190057 | 26 | 150 | 6.4 | 29.0 | 0.00 | 0.00 | 0.00 | 73 | 1017.6 |
| 20260906184607 | 27 | 114 | 4.8 | 12.9 | 0.00 | 0.00 | 0.00 | 71 | 1017.8 |
| 20260906183054 | 27 | 171 | 3.2 | 12.9 | 0.00 | 0.00 | 0.00 | 70 | 1017.8 |
| 20260906181603 | 27 | 126 | 4.8 | 11.3 | 0.00 | 0.00 | 0.00 | 70 | 1017.9 |
| 20260906180100 | 27 | 0 | 1.6 | 9.7 | 0.00 | 0.00 | 0.00 | 70 | 1018.0 |
| 20260906174601 | 27 | 139 | 3.2 | 20.9 | 0.00 | 0.00 | 0.00 | 73 | 1018.0 |
| 20260906173104 | 27 | 132 | 1.6 | 9.7 | 0.00 | 0.00 | 0.00 | 72 | 1018.0 |
| 20260906171600 | 27 | 190 | 3.2 | 11.3 | 0.00 | 0.00 | 0.00 | 75 | 1018.0 |
| 20260906170056 | 27 | 173 | 1.6 | 14.5 | 0.00 | 0.00 | 0.00 | 73 | 1018.2 |
| 20260906164609 | 26 | 178 | 1.6 | 8.0 | 0.00 | 0.00 | 0.00 | 75 | 1018.6 |
| 20260906163104 | 26 | 34 | 1.6 | 9.7 | 0.00 | 0.00 | 0.00 | 76 | 1018.6 |
| 20260906161608 | 26 | 76 | 3.2 | 9.7 | 0.00 | 0.00 | 0.00 | 75 | 1018.7 |
| 20260906160103 | 25 | 168 | 3.2 | 12.9 | 0.00 | 0.00 | 0.00 | 79 | 1018.8 |
| 20260906154559 | 25 | 77 | 1.6 | 11.3 | 0.00 | 0.00 | 0.00 | 82 | 1018.8 |
| 20260906153101 | 24 | 130 | 1.6 | 6.4 | 0.00 | 0.00 | 0.00 | 83 | 1018.9 |
| 20260906151602 | 23 | 187 | 0.0 | 11.3 | 0.00 | 0.00 | 0.00 | 84 | 1019.2 |
| 20260906150057 | 22 | 135 | 1.6 | 14.5 | 0.00 | 0.00 | 0.00 | 86 | 1019.0 |
| 20260906144624 | 22 | 121 | 3.2 | 11.3 | 0.00 | 0.00 | 0.00 | 88 | 1019.3 |
| 20260906143113 | 21 | 90 | 1.6 | 11.3 | 0.00 | 0.00 | 0.00 | 90 | 1019.3 |
| 20260906141557 | 21 | 129 | 0.0 | 8.0 | 0.00 | 0.00 | 0.00 | 91 | 1019.0 |
| 20260906140103 | 20 | 110 | 1.6 | 8.0 | 0.00 | 0.00 | 0.00 | 93 | 1018.8 |
| 20260906134558 | 20 | 132 | 1.6 | 4.8 | 0.00 | 0.00 | 0.00 | 94 | 1019.1 |
| 20260906133104 | 20 | 98 | 0.0 | 8.0 | 0.00 | 0.00 | 0.00 | 95 | 1018.8 |
| 20260906131605 | 19 | 112 | 1.6 | 9.7 | 0.00 | 0.00 | 0.00 | 96 | 1018.9 |
| 20260906130056 | 18 | 55 | 1.6 | 4.8 | 0.00 | 0.00 | 0.00 | 95 | 1018.8 |
| 20260906124605 | 18 | 59 | 0.0 | 6.4 | 0.00 | 0.00 | 0.00 | 95 | 1018.7 |
| 20260906123106 | 18 | 96 | 1.6 | 6.4 | 0.00 | 0.00 | 0.00 | 95 | 1018.5 |
| 20260906121555 | 18 | 0 | 1.6 | 4.8 | 0.00 | 0.00 | 0.00 | 95 | 1018.4 |
| 20260906120117 | 18 | 103 | 1.6 | 3.2 | 0.00 | 0.00 | 0.00 | 95 | 1018.4 |
| 20260906114555 | 18 | 74 | 1.6 | 3.2 | 0.00 | 0.00 | 0.00 | 95 | 1018.5 |
| 20260906113054 | 18 | 0 | 0.0 | 3.2 | 0.00 | 0.00 | 0.00 | 95 | 1018.6 |
| 20260906111554 | 18 | 86 | 0.0 | 3.2 | 0.00 | 0.00 | 0.00 | 95 | 1018.6 |
| 20260906110100 | 18 | 74 | 1.6 | 4.8 | 0.00 | 0.00 | 0.00 | 94 | 1018.6 |
| 20260906104604 | 18 | 80 | 1.6 | 4.8 | 0.00 | 0.00 | 0.00 | 94 | 1018.7 |
| 20260906103100 | 18 | 76 | 0.0 | 3.2 | 0.00 | 0.00 | 0.00 | 94 | 1018.6 |
| 20260906101556 | 18 | 0 | 0.0 | 1.6 | 0.00 | 0.00 | 0.00 | 94 | 1018.5 |
| 20260906100106 | 18 | 0 | 0.0 | 1.6 | 0.00 | 0.00 | 0.00 | 94 | 1018.3 |
| 20260906094601 | 18 | 0 | 0.0 | 3.2 | 0.00 | 0.00 | 0.00 | 93 | 1018.2 |
| 20260906093116 | 18 | 92 | 0.0 | 6.4 | 0.00 | 0.00 | 0.00 | 93 | 1017.9 |
| 20260906091604 | 18 | 46 | 1.6 | 6.4 | 0.00 | 0.00 | 0.00 | 93 | 1017.7 |
| 20260906090119 | 19 | 0 | 0.0 | 1.6 | 0.00 | 0.00 | 0.00 | 93 | 1017.7 |
| 20260906084559 | 19 | 0 | 0.0 | 4.8 | 0.00 | 0.00 | 0.00 | 92 | 1017.5 |
| 20260906083056 | 19 | 83 | 1.6 | 4.8 | 0.00 | 0.00 | 0.00 | 92 | 1017.6 |
| 20260906081601 | 20 | 90 | 1.6 | 4.8 | 0.00 | 0.00 | 0.00 | 92 | 1017.7 |
| 20260906080100 | 20 | 46 | 1.6 | 8.0 | 0.00 | 0.00 | 0.00 | 92 | 1017.6 |
| 20260906074555 | 20 | 79 | 1.6 | 6.4 | 0.00 | 0.00 | 0.00 | 92 | 1017.6 |
| 20260906073100 | 20 | 53 | 1.6 | 4.8 | 0.00 | 0.00 | 0.00 | 91 | 1017.7 |
| 20260906071610 | 20 | 0 | 0.0 | 1.6 | 0.00 | 0.00 | 0.00 | 92 | 1018.0 |
| 20260906070058 | 20 | 85 | 0.0 | 3.2 | 0.00 | 0.00 | 0.00 | 91 | 1018.1 |
| 20260906064555 | 20 | 0 | 0.0 | 1.6 | 0.00 | 0.00 | 0.00 | 91 | 1018.2 |
| 20260906063056 | 20 | 0 | 0.0 | 1.6 | 0.00 | 0.00 | 0.00 | 91 | 1018.2 |
| 20260906061558 | 20 | 76 | 0.0 | 3.2 | 0.00 | 0.00 | 0.00 | 91 | 1018.2 |
| 20260906060057 | 20 | 0 | 0.0 | 4.8 | 0.00 | 0.00 | 0.00 | 91 | 1018.1 |
| 20260906054600 | 20 | 0 | 0.0 | 3.2 | 0.00 | 0.00 | 0.00 | 90 | 1018.1 |
| 20260906053056 | 20 | 0 | 0.0 | 3.2 | 0.00 | 0.00 | 0.00 | 90 | 1018.0 |
| 20260906051557 | 21 | 0 | 0.0 | 6.4 | 0.00 | 0.00 | 0.00 | 89 | 1018.0 |
| 20260906050114 | 21 | 65 | 1.6 | 8.0 | 0.00 | 0.00 | 0.00 | 89 | 1018.0 |
| 20260906044558 | 21 | 0 | 0.0 | 3.2 | 0.00 | 0.00 | 0.00 | 89 | 1017.9 |
| 20260906043110 | 21 | 64 | 0.0 | 3.2 | 0.00 | 0.00 | 0.00 | 88 | 1017.9 |
| 20260906041556 | 21 | 80 | 0.0 | 3.2 | 0.00 | 0.00 | 0.00 | 87 | 1018.0 |
| 20260906040101 | 21 | 0 | 1.6 | 6.4 | 0.00 | 0.00 | 0.00 | 87 | 1018.1 |
| 20260906034600 | 21 | 65 | 1.6 | 3.2 | 0.00 | 0.00 | 0.00 | 87 | 1018.2 |
| 20260906033056 | 21 | 73 | 1.6 | 6.4 | 0.00 | 0.00 | 0.00 | 87 | 1018.2 |
| 20260906031557 | 21 | 76 | 0.0 | 4.8 | 0.00 | 0.00 | 0.00 | 87 | 1018.1 |
| 20260906030114 | 21 | 49 | 3.2 | 9.7 | 0.00 | 0.00 | 0.00 | 87 | 1018.2 |
| 20260906024555 | 21 | 0 | 0.0 | 4.8 | 0.00 | 0.00 | 0.00 | 87 | 1018.2 |
| 20260906023117 | 21 | 0 | 1.6 | 6.4 | 0.00 | 0.00 | 0.00 | 87 | 1018.3 |
| 20260906021611 | 21 | 0 | 0.0 | 4.8 | 0.00 | 0.00 | 0.00 | 86 | 1018.0 |
| 20260906020104 | 21 | 0 | 0.0 | 1.6 | 0.00 | 0.00 | 0.00 | 86 | 1017.9 |
| 20260906014602 | 22 | 73 | 0.0 | 4.8 | 0.00 | 0.00 | 0.00 | 84 | 1017.8 |
| 20260906013057 | 22 | 92 | 0.0 | 4.8 | 0.00 | 0.00 | 0.00 | 83 | 1017.3 |
| 20260906011554 | 23 | 0 | 0.0 | 6.4 | 0.00 | 0.00 | 0.00 | 82 | 1016.9 |
| 20260906010106 | 23 | 0 | 1.6 | 8.0 | 0.00 | 0.00 | 0.00 | 81 | 1016.5 |
| 20260906004600 | 23 | 82 | 1.6 | 8.0 | 0.00 | 0.00 | 0.00 | 79 | 1016.1 |
| 20260906003110 | 24 | 73 | 1.6 | 9.7 | 0.00 | 0.00 | 0.00 | 78 | 1015.9 |
| 20260906001558 | 24 | 92 | 1.6 | 9.7 | 0.00 | 0.00 | 0.00 | 77 | 1015.6 |
| 20260906000100 | 25 | 106 | 1.6 | 9.7 | 0.00 | 0.00 | 0.00 | 76 | 1015.6 |
| 20260905234615 | 25 | 0 | 3.2 | 11.3 | 0.00 | 0.00 | 0.00 | 75 | 1015.4 |
| 20260905233059 | 25 | 0 | 4.8 | 14.5 | 0.00 | 0.00 | 0.00 | 73 | 1015.3 |
| 20260905231600 | 26 | 113 | 3.2 | 17.7 | 0.00 | 0.00 | 0.00 | 73 | 1015.5 |
| 20260905230058 | 26 | 130 | 4.8 | 14.5 | 0.00 | 0.00 | 0.00 | 72 | 1015.8 |
| 20260905224556 | 26 | 90 | 4.8 | 12.9 | 0.00 | 0.00 | 0.00 | 71 | 1015.9 |
| 20260905223057 | 26 | 46 | 6.4 | 19.3 | 0.00 | 0.00 | 0.00 | 71 | 1015.8 |
| 20260905221602 | 27 | 97 | 3.2 | 16.1 | 0.00 | 0.00 | 0.00 | 69 | 1015.8 |
| 20260905220059 | 27 | 40 | 6.4 | 17.7 | 0.00 | 0.00 | 0.00 | 70 | 1015.9 |
| 20260905214611 | 27 | 102 | 8.0 | 17.7 | 0.00 | 0.00 | 0.00 | 70 | 1015.9 |
| 20260905213114 | 27 | 56 | 3.2 | 17.7 | 0.00 | 0.00 | 0.00 | 70 | 1015.8 |
| 20260905211557 | 27 | 93 | 6.4 | 16.1 | 0.00 | 0.00 | 0.00 | 70 | 1015.6 |
| 20260905210106 | 27 | 59 | 4.8 | 14.5 | 0.00 | 0.00 | 0.00 | 71 | 1015.8 |
| 20260905204602 | 27 | 28 | 4.8 | 19.3 | 0.00 | 0.00 | 0.00 | 71 | 1016.1 |
| 20260905203058 | 27 | 101 | 1.6 | 14.5 | 0.00 | 0.00 | 0.00 | 72 | 1016.2 |
| 20260905201607 | 26 | 53 | 3.2 | 14.5 | 0.00 | 0.00 | 0.00 | 73 | 1016.8 |
| 20260905194602 | 26 | 93 | 1.6 | 11.3 | 0.00 | 0.00 | 0.00 | 75 | 1017.5 |
| 20260905193059 | 26 | 57 | 3.2 | 11.3 | 0.00 | 0.00 | 0.00 | 76 | 1017.4 |